Year,Month,Day,Hour,Minute,Value (Times are PST for temperature in C)
2018,05,25,00,00,12.30
2018,05,25,00,01,12.20
2018,05,25,00,02,12.20
2018,05,25,00,03,12.20
2018,05,25,00,04,12.20
2018,05,25,00,05,12.20
2018,05,25,00,06,12.20
2018,05,25,00,07,12.20
2018,05,25,00,08,12.20
2018,05,25,00,09,12.20
2018,05,25,00,10,12.20
2018,05,25,00,11,12.20
2018,05,25,00,12,12.20
2018,05,25,00,13,12.20
2018,05,25,00,14,12.20
2018,05,25,00,15,12.20
2018,05,25,00,16,12.20
2018,05,25,00,17,12.20
2018,05,25,00,18,12.30
2018,05,25,00,19,12.30
2018,05,25,00,20,12.30
2018,05,25,00,21,12.20
2018,05,25,00,22,12.20
2018,05,25,00,23,12.30
2018,05,25,00,24,12.30
2018,05,25,00,25,12.30
2018,05,25,00,26,12.30
2018,05,25,00,27,12.30
2018,05,25,00,28,12.30
2018,05,25,00,29,12.30
2018,05,25,00,30,12.40
2018,05,25,00,31,12.50
2018,05,25,00,32,12.60
2018,05,25,00,33,12.70
2018,05,25,00,34,12.70
2018,05,25,00,35,12.70
2018,05,25,00,36,12.70
2018,05,25,00,37,12.70
2018,05,25,00,38,12.80
2018,05,25,00,39,12.80
2018,05,25,00,40,12.80
2018,05,25,00,41,12.80
2018,05,25,00,42,12.90
2018,05,25,00,43,12.90
2018,05,25,00,44,12.90
2018,05,25,00,45,12.80
2018,05,25,00,46,12.80
2018,05,25,00,47,12.80
2018,05,25,00,48,12.70
2018,05,25,00,49,12.70
2018,05,25,00,50,12.70
2018,05,25,00,51,12.70
2018,05,25,00,52,12.70
2018,05,25,00,53,12.70
2018,05,25,00,54,12.70
2018,05,25,00,55,12.60
2018,05,25,00,56,12.60
2018,05,25,00,57,12.50
2018,05,25,00,58,12.50
2018,05,25,00,59,12.50
2018,05,25,01,00,12.50
2018,05,25,01,01,12.60
2018,05,25,01,02,12.70
2018,05,25,01,03,12.80
2018,05,25,01,04,12.90
2018,05,25,01,05,13.00
2018,05,25,01,06,13.10
2018,05,25,01,07,13.20
2018,05,25,01,08,13.30
2018,05,25,01,09,13.30
2018,05,25,01,10,13.40
2018,05,25,01,11,13.50
2018,05,25,01,12,13.60
2018,05,25,01,13,13.60
2018,05,25,01,14,13.70
2018,05,25,01,15,13.70
2018,05,25,01,16,13.70
2018,05,25,01,17,13.80
2018,05,25,01,18,13.80
2018,05,25,01,19,13.80
2018,05,25,01,20,13.80
2018,05,25,01,21,13.80
2018,05,25,01,22,13.80
2018,05,25,01,23,13.80
2018,05,25,01,24,13.80
2018,05,25,01,25,13.80
2018,05,25,01,26,13.80
2018,05,25,01,27,13.90
2018,05,25,01,28,13.90
2018,05,25,01,29,13.90
2018,05,25,01,30,13.90
2018,05,25,01,31,13.90
2018,05,25,01,32,13.90
2018,05,25,01,33,13.90
2018,05,25,01,34,13.90
2018,05,25,01,35,13.90
2018,05,25,01,36,13.90
2018,05,25,01,37,13.90
2018,05,25,01,38,13.90
2018,05,25,01,39,13.90
2018,05,25,01,40,13.90
2018,05,25,01,41,13.90
2018,05,25,01,42,13.90
2018,05,25,01,43,14.00
2018,05,25,01,44,14.00
2018,05,25,01,45,14.00
2018,05,25,01,46,14.00
2018,05,25,01,47,14.00
2018,05,25,01,48,14.00
2018,05,25,01,49,14.00
2018,05,25,01,50,14.00
2018,05,25,01,51,14.00
2018,05,25,01,52,14.10
2018,05,25,01,53,14.10
2018,05,25,01,54,14.10
2018,05,25,01,55,14.10
2018,05,25,01,56,14.10
2018,05,25,01,57,14.10
2018,05,25,01,58,14.10
2018,05,25,01,59,14.10
2018,05,25,02,00,14.00
2018,05,25,02,01,14.00
2018,05,25,02,02,14.00
2018,05,25,02,03,14.00
2018,05,25,02,04,14.00
2018,05,25,02,05,14.10
2018,05,25,02,06,14.10
2018,05,25,02,07,14.10
2018,05,25,02,08,14.10
2018,05,25,02,09,14.10
2018,05,25,02,10,14.10
2018,05,25,02,11,14.10
2018,05,25,02,12,14.10
2018,05,25,02,13,14.10
2018,05,25,02,14,14.00
2018,05,25,02,15,14.00
2018,05,25,02,16,14.00
2018,05,25,02,17,13.90
2018,05,25,02,18,13.90
2018,05,25,02,19,13.90
2018,05,25,02,20,13.90
2018,05,25,02,21,13.90
2018,05,25,02,22,13.80
2018,05,25,02,23,13.80
2018,05,25,02,24,13.80
2018,05,25,02,25,13.80
2018,05,25,02,26,13.80
2018,05,25,02,27,13.80
2018,05,25,02,28,13.80
2018,05,25,02,29,13.80
2018,05,25,02,30,13.80
2018,05,25,02,31,13.80
2018,05,25,02,32,13.70
2018,05,25,02,33,13.70
2018,05,25,02,34,13.60
2018,05,25,02,35,13.60
2018,05,25,02,36,13.50
2018,05,25,02,37,13.50
2018,05,25,02,38,13.40
2018,05,25,02,39,13.30
2018,05,25,02,40,13.30
2018,05,25,02,41,13.30
2018,05,25,02,42,13.20
2018,05,25,02,43,13.20
2018,05,25,02,44,13.10
2018,05,25,02,45,13.10
2018,05,25,02,46,13.10
2018,05,25,02,47,13.00
2018,05,25,02,48,12.90
2018,05,25,02,49,12.90
2018,05,25,02,50,12.80
2018,05,25,02,51,12.80
2018,05,25,02,52,12.70
2018,05,25,02,53,12.70
2018,05,25,02,54,12.70
2018,05,25,02,55,12.60
2018,05,25,02,56,12.60
2018,05,25,02,57,12.60
2018,05,25,02,58,12.60
2018,05,25,02,59,12.60
2018,05,25,03,00,12.60
2018,05,25,03,01,12.50
2018,05,25,03,02,12.50
2018,05,25,03,03,12.50
2018,05,25,03,04,12.40
2018,05,25,03,05,12.40
2018,05,25,03,06,12.40
2018,05,25,03,07,12.30
2018,05,25,03,08,12.30
2018,05,25,03,09,12.30
2018,05,25,03,10,12.20
2018,05,25,03,11,12.20
2018,05,25,03,12,12.10
2018,05,25,03,13,12.10
2018,05,25,03,14,12.10
2018,05,25,03,15,12.10
2018,05,25,03,16,12.00
2018,05,25,03,17,12.00
2018,05,25,03,18,12.00
2018,05,25,03,19,11.90
2018,05,25,03,20,11.90
2018,05,25,03,21,11.90
2018,05,25,03,22,11.90
2018,05,25,03,23,12.00
2018,05,25,03,24,12.00
2018,05,25,03,25,12.10
2018,05,25,03,26,12.10
2018,05,25,03,27,12.10
2018,05,25,03,28,12.10
2018,05,25,03,29,12.20
2018,05,25,03,30,12.20
2018,05,25,03,31,12.30
2018,05,25,03,32,12.30
2018,05,25,03,33,12.40
2018,05,25,03,34,12.40
2018,05,25,03,35,12.50
2018,05,25,03,36,12.50
2018,05,25,03,37,12.60
2018,05,25,03,38,12.60
2018,05,25,03,39,12.60
2018,05,25,03,40,12.70
2018,05,25,03,41,12.70
2018,05,25,03,42,12.70
2018,05,25,03,43,12.70
2018,05,25,03,44,12.70
2018,05,25,03,45,12.70
2018,05,25,03,46,12.60
2018,05,25,03,47,12.60
2018,05,25,03,48,12.50
2018,05,25,03,49,12.50
2018,05,25,03,50,12.40
2018,05,25,03,51,12.40
2018,05,25,03,52,12.40
2018,05,25,03,53,12.30
2018,05,25,03,54,12.30
2018,05,25,03,55,12.30
2018,05,25,03,56,12.30
2018,05,25,03,57,12.30
2018,05,25,03,58,12.20
2018,05,25,03,59,12.20
2018,05,25,04,00,12.20
2018,05,25,04,01,12.20
2018,05,25,04,02,12.10
2018,05,25,04,03,12.10
2018,05,25,04,04,12.10
2018,05,25,04,05,12.00
2018,05,25,04,06,12.00
2018,05,25,04,07,11.90
2018,05,25,04,08,11.90
2018,05,25,04,09,11.90
2018,05,25,04,10,11.90
2018,05,25,04,11,11.90
2018,05,25,04,12,11.90
2018,05,25,04,13,11.90
2018,05,25,04,14,11.80
2018,05,25,04,15,11.80
2018,05,25,04,16,11.80
2018,05,25,04,17,11.80
2018,05,25,04,18,11.70
2018,05,25,04,19,11.70
2018,05,25,04,20,11.70
2018,05,25,04,21,11.70
2018,05,25,04,22,11.70
2018,05,25,04,23,11.70
2018,05,25,04,24,11.70
2018,05,25,04,25,11.70
2018,05,25,04,26,11.70
2018,05,25,04,27,11.70
2018,05,25,04,28,11.70
2018,05,25,04,29,11.70
2018,05,25,04,30,11.70
2018,05,25,04,31,11.60
2018,05,25,04,32,11.60
2018,05,25,04,33,11.60
2018,05,25,04,34,11.60
2018,05,25,04,35,11.60
2018,05,25,04,36,11.60
2018,05,25,04,37,11.60
2018,05,25,04,38,11.60
2018,05,25,04,39,11.60
2018,05,25,04,40,11.60
2018,05,25,04,41,11.60
2018,05,25,04,42,11.60
2018,05,25,04,43,11.60
2018,05,25,04,44,11.70
2018,05,25,04,45,11.70
2018,05,25,04,46,11.70
2018,05,25,04,47,11.60
2018,05,25,04,48,11.70
2018,05,25,04,49,11.70
2018,05,25,04,50,11.70
2018,05,25,04,51,11.70
2018,05,25,04,52,11.70
2018,05,25,04,53,11.70
2018,05,25,04,54,11.70
2018,05,25,04,55,11.70
2018,05,25,04,56,11.70
2018,05,25,04,57,11.70
2018,05,25,04,58,11.70
2018,05,25,04,59,11.70
2018,05,25,05,00,11.80
2018,05,25,05,01,11.80
2018,05,25,05,02,11.90
2018,05,25,05,03,11.90
2018,05,25,05,04,11.90
2018,05,25,05,05,11.90
2018,05,25,05,06,11.80
2018,05,25,05,07,11.80
2018,05,25,05,08,11.80
2018,05,25,05,09,11.70
2018,05,25,05,10,11.60
2018,05,25,05,11,11.60
2018,05,25,05,12,11.50
2018,05,25,05,13,11.50
2018,05,25,05,14,11.40
2018,05,25,05,15,11.40
2018,05,25,05,16,11.40
2018,05,25,05,17,11.40
2018,05,25,05,18,11.30
2018,05,25,05,19,11.30
2018,05,25,05,20,11.30
2018,05,25,05,21,11.30
2018,05,25,05,22,11.30
2018,05,25,05,23,11.20
2018,05,25,05,24,11.20
2018,05,25,05,25,11.20
2018,05,25,05,26,11.20
2018,05,25,05,27,11.10
2018,05,25,05,28,11.10
2018,05,25,05,29,11.10
2018,05,25,05,30,11.10
2018,05,25,05,31,11.10
2018,05,25,05,32,11.10
2018,05,25,05,33,11.10
2018,05,25,05,34,11.10
2018,05,25,05,35,11.20
2018,05,25,05,36,11.20
2018,05,25,05,37,11.20
2018,05,25,05,38,11.30
2018,05,25,05,39,11.40
2018,05,25,05,40,11.40
2018,05,25,05,41,11.50
2018,05,25,05,42,11.50
2018,05,25,05,43,11.60
2018,05,25,05,44,11.60
2018,05,25,05,45,11.70
2018,05,25,05,46,11.70
2018,05,25,05,47,11.80
2018,05,25,05,48,11.80
2018,05,25,05,49,11.90
2018,05,25,05,50,11.90
2018,05,25,05,51,11.90
2018,05,25,05,52,12.00
2018,05,25,05,53,12.00
2018,05,25,05,54,12.00
2018,05,25,05,55,12.10
2018,05,25,05,56,12.10
2018,05,25,05,57,12.10
2018,05,25,05,58,12.10
2018,05,25,05,59,12.10
2018,05,25,06,00,12.10
2018,05,25,06,01,12.10
2018,05,25,06,02,12.10
2018,05,25,06,03,12.00
2018,05,25,06,04,12.00
2018,05,25,06,05,11.90
2018,05,25,06,06,11.90
2018,05,25,06,07,11.90
2018,05,25,06,08,11.80
2018,05,25,06,09,11.80
2018,05,25,06,10,11.80
2018,05,25,06,11,11.80
2018,05,25,06,12,11.80
2018,05,25,06,13,11.80
2018,05,25,06,14,11.80
2018,05,25,06,15,11.80
2018,05,25,06,16,11.80
2018,05,25,06,17,11.80
2018,05,25,06,18,11.90
2018,05,25,06,19,11.90
2018,05,25,06,20,11.90
2018,05,25,06,21,11.90
2018,05,25,06,22,11.90
2018,05,25,06,23,12.00
2018,05,25,06,24,12.00
2018,05,25,06,25,12.00
2018,05,25,06,26,12.10
2018,05,25,06,27,12.10
2018,05,25,06,28,12.10
2018,05,25,06,29,12.20
2018,05,25,06,30,12.20
2018,05,25,06,31,12.20
2018,05,25,06,32,12.30
2018,05,25,06,33,12.30
2018,05,25,06,34,12.30
2018,05,25,06,35,12.30
2018,05,25,06,36,12.40
2018,05,25,06,37,12.40
2018,05,25,06,38,12.40
2018,05,25,06,39,12.50
2018,05,25,06,40,12.50
2018,05,25,06,41,12.50
2018,05,25,06,42,12.50
2018,05,25,06,43,12.60
2018,05,25,06,44,12.60
2018,05,25,06,45,12.60
2018,05,25,06,46,12.60
2018,05,25,06,47,12.60
2018,05,25,06,48,12.60
2018,05,25,06,49,12.50
2018,05,25,06,50,12.50
2018,05,25,06,51,12.50
2018,05,25,06,52,12.50
2018,05,25,06,53,12.50
2018,05,25,06,54,12.40
2018,05,25,06,55,12.40
2018,05,25,06,56,12.40
2018,05,25,06,57,12.40
2018,05,25,06,58,12.40
2018,05,25,06,59,12.40
2018,05,25,07,00,12.40
2018,05,25,07,01,12.30
2018,05,25,07,02,12.30
2018,05,25,07,03,12.30
2018,05,25,07,04,12.30
2018,05,25,07,05,12.30
2018,05,25,07,06,12.30
2018,05,25,07,07,12.30
2018,05,25,07,08,12.30
2018,05,25,07,09,12.30
2018,05,25,07,10,12.40
2018,05,25,07,11,12.30
2018,05,25,07,12,12.40
2018,05,25,07,13,12.40
2018,05,25,07,14,12.40
2018,05,25,07,15,12.40
2018,05,25,07,16,12.40
2018,05,25,07,17,12.40
2018,05,25,07,18,12.40
2018,05,25,07,19,12.40
2018,05,25,07,20,12.40
2018,05,25,07,21,12.40
2018,05,25,07,22,12.40
2018,05,25,07,23,12.40
2018,05,25,07,24,12.40
2018,05,25,07,25,12.40
2018,05,25,07,26,12.40
2018,05,25,07,27,12.50
2018,05,25,07,28,12.50
2018,05,25,07,29,12.50
2018,05,25,07,30,12.50
2018,05,25,07,31,12.60
2018,05,25,07,32,12.60
2018,05,25,07,33,12.70
2018,05,25,07,34,12.70
2018,05,25,07,35,12.80
2018,05,25,07,36,12.80
2018,05,25,07,37,12.90
2018,05,25,07,38,13.00
2018,05,25,07,39,13.10
2018,05,25,07,40,13.10
2018,05,25,07,41,13.20
2018,05,25,07,42,13.20
2018,05,25,07,43,13.30
2018,05,25,07,44,13.30
2018,05,25,07,45,13.40
2018,05,25,07,46,13.40
2018,05,25,07,47,13.40
2018,05,25,07,48,13.50
2018,05,25,07,49,13.50
2018,05,25,07,50,13.60
2018,05,25,07,51,13.60
2018,05,25,07,52,13.60
2018,05,25,07,53,13.60
2018,05,25,07,54,13.60
2018,05,25,07,55,13.70
2018,05,25,07,56,13.70
2018,05,25,07,57,13.80
2018,05,25,07,58,13.80
2018,05,25,07,59,13.90
2018,05,25,08,00,13.90
2018,05,25,08,01,14.00
2018,05,25,08,02,14.00
2018,05,25,08,03,14.10
2018,05,25,08,04,14.10
2018,05,25,08,05,14.10
2018,05,25,08,06,14.00
2018,05,25,08,07,14.00
2018,05,25,08,08,13.90
2018,05,25,08,09,13.90
2018,05,25,08,10,13.90
2018,05,25,08,11,13.80
2018,05,25,08,12,13.80
2018,05,25,08,13,13.80
2018,05,25,08,14,13.80
2018,05,25,08,15,13.90
